SL-16 DEB, 18527

Orbit data source: Space-Track

SL-16 DEB, 18527 is space debris in LEO originally from a launch on Wed, 18 Mar 1987 UTC launched from the Tyuratam Missile And Space Complex (TTMTR). Debris objects in space refer to the collection of defunct objects orbiting the Earth. Examples of debris include non-operational satellites, rocket bodies, and fragments generated from explosions, collisions, or faulty payload assembly.

Loading next visibility...
Identifier
18527, 1987-027E
Orbit
LEO
Last TLE update
18 hours ago
Origin
Manufacturer
Yuzhnoe
Mission
Spacecraft
Bus & Motor
SEP MOTOR COVER, Unknown motor
Mass
~0 kg wet, ~1 kg dry
Launch date (UTC)
1987-03-18 (38 years ago)
Launch vehicle
Unknown
Launch site
Tyuratam Missile And Space Complex (TTMTR)
Object type
Payload
Rocket body
Debris
Shape & HBR
Unknown
Radar Cross Section
Small (<0.1 m²)

Expand to show TLE details & history

TLE from 18 hours ago
0 SL-16 DEB
1 18527U 87027E   25129.04789933  .00000211  00000-0  22880-3 0  9996
2 18527  70.9986 359.0677 0193269 124.9853 236.9565 13.75690220913614
Epoch: 2025-05-09T01:08Z
Definitive object data (Epoch: 2025-05-09T01:08:58.502Z)
Latitude
-0°
Longitude
114.7143°
Altitude
1,061.018 km
Speed
7.282 km/s
True Right ascension
23h 56m 16s
True Declination
0° 00' 00"
Sunlit
Object was in daylight at TLE epoch
Visualization TLE readout
Latitude
47.75604°
Longitude
135.42391°
Altitude
940.905 km
Speed
7.409 km/s
Apparent Right ascension
20h 13m 32s
Apparent Declination
31° 12' 57"
Sunlit
Object is in daylight
Visualization observer readout
Local Sidereal Time
03:01:53
Azimuth
301.498° NW
Elevation
11.255°
Doppler factor
1
Orbital elements
Apogee altitude
1,119.331 km
Perigee altitude
835.02 km
Semi-major axis
7,355.312 km
Eccentricity
0.0193269
Inclination
70.9986°
RAAN
359.0677°
Arg. of periapsis
124.9853°
True anomaly
235.12447°
Mean anomaly
236.9565°
Eccentric anomaly
236.03805°
Mean motion
3.44066 °/min
BSTAR
0.0002288
Orbital period
104.63 mins
Loading maneuver chart data...
Loading SW <> Apogee altitude chart data...
Loading historical data...
Loading historical data...
Loading historical data...
Loading historical data...
Loading historical data...
Loading historical data...
Loading historical data...

SL-16 DEB Visibility forecast

Observer location: undefined°, undefined°

Span
Click to sort rows by Start time (UTC) header in descending order
Start Az.
Max El. time (UTC)
Max El. Az.
Max El.
End time (UTC)
End Az.
9 mins2025-05-10 02:10:01.352Z345.981° N2025-05-10 02:14:01.352Z86.871° E42.552°2025-05-10 02:19:01.352Z148.098° SSE
9 mins2025-05-10 15:40:01.352Z159.816° S2025-05-10 15:44:01.352Z105.177° ESE30.43°2025-05-10 15:49:01.352Z42.78° NE
9 mins2025-05-10 17:27:01.352Z244.74° WSW2025-05-10 17:31:01.352Z300.396° NW30.158°2025-05-10 17:36:01.352Z4.433° NNE
|